Volver al catálogo

SHIYAN 26B

ActivoCienciaSSO
NORAD 61908·PAYLOAD·🇨🇳 China
Este nombre de satélite aún no ha sido confirmado por fuentes oficiales.

Lanzado Nov 11, 2024 desde Jiuquan Satellite Launch Center

Loading…

Próximos Pases (próximas 24 horas)

TLE

ActualizadoSource: Space-Track

Época: Sep 14, 2026, 12:52 UTC

1 61908U 24205Q   26257.53657126  .00004449  00000-0  22070-3 0  9999
2 61908  97.4052 328.1472 0013369 105.5068 254.7643 15.18150238101880

Sigue SHIYAN 26B en tiempo real con AllMySat

Download on the App Store